sat.trackr.live / text

‹ back to catalog

STARLINK-31558

NORAD 59196 · 2024-045U

PAYLOAD ACTIVE UNKNOWN

§ Identity

Operator
Country
US
Launch date
2024-03-10
Launch site
AFETR
Launch vehicle
Mass (kg)
RCS (m²)

Purposes: comms

External: N2YO · Heavens-Above · Gunter

§ Orbital elements

Epoch: 2026-05-25T01:12:10.819872Z

Period
94.27 min
Inclination
43.0050°
Eccentricity
0.0001607
Mean motion
15.27588788 rev/d
Perigee alt
481.9 km
Apogee alt
484.1 km
Semi-major
6,861.2 km
B*
4.3010e-5
RAAN
20.9615°
Arg perigee
252.6551°
Mean anomaly
107.4125°
Rev number
12,485

§ Raw data

STARLINK-315581 59196U 24045U   26145.05012523  .00000922  00000+0  43010-4 0  99952 59196  43.0050  20.9615 0001607 252.6551 107.4125 15.27588788124856

JSON: /api/v1/satellites/59196 · /tle

For live sub-satellite position, see the globe view (requires WebGL).

§ Visibility from observer

Set your observer location to see the next 7 days of passes ≥ 10°. The values pass through the URL so the page stays shareable.

No JS? Fill the form by hand. The geolocation button needs JavaScript.